Home   Weather   Telford   Past weeks

Flag for United Kingdom Past Weather in Telford, England, United Kingdom — Yesterday and Last 2 Weeks

46 °F


Feels Like: 46 °F
Forecast: 48 / 59 °F
Wind: 1 mph from Northeast

Location: Shawbury

Current Time: Oct 26, 2016 at 5:09:08 AM

Latest Report: Oct 26, 2016 at 3:50 AM

Visibility: 2 mi

Pressure: 30.24 "Hg

Humidity: 100%

Dew Point: 46 °F

Location of TelfordLocation

Past Weather in Telford — Graph


Telford Temperature Yesterday

Maximum temperature yesterday: 54 °F (at 2:50 PM)
Minimum temperature yesterday: 37 °F (at 5:50 AM)
Average temperature yesterday: 47 °F

High & Low Weather Summary for the Past Weeks

High61 °F (Oct 16, 1:50 PM)100% (Oct 11, 4:50 AM)30.27 "Hg (Oct 11, 4:50 AM)
Low34 °F (Oct 11, 4:50 AM)54% (Oct 18, 12:50 PM)29.62 "Hg (Oct 15, 3:50 AM)
Average49 °F85%30.02 "Hg
* Reported Oct 11 3:50 AM — Oct 26 3:50 AM, Telford, Weather by CustomWeather, © 2016

Note: Actual official high and low records may vary slightly from our data, if they occured in-between our weather recording intervals... More about our weather records


Telford Weather History for the Previous 24 Hours

Scroll right to see more
Time TempWeatherWind HumidityBarometerVisibility
3:50 AM
Wed, Oct 26
46 °FFog.1 mph100%30.24 "Hg2 mi
2:50 AM43 °FPartly cloudy.1 mph100%30.24 "Hg2 mi
1:50 AM41 °FFog.No wind93%30.24 "Hg0 mi
12:50 AM43 °FFog.No wind93%30.24 "Hg0 mi
11:50 PM
Tue, Oct 25
43 °FFog.1 mph100%30.24 "Hg0 mi
10:50 PM48 °FFog.2 mph94%30.24 "Hg2 mi
9:50 PM50 °FPassing clouds.5 mph94%30.24 "Hg3 mi
8:50 PM50 °FPassing clouds.3 mph94%30.24 "Hg4 mi
7:50 PM52 °FMostly cloudy.6 mph88%30.24 "Hg4 mi
6:50 PM52 °FPartly cloudy.6 mph88%30.21 "Hg4 mi
5:50 PM52 °FPartly sunny.7 mph88%30.21 "Hg5 mi
4:50 PM54 °FBroken clouds.7 mph77%30.21 "HgN/A
3:50 PM54 °FPartly sunny.8 mph77%30.18 "HgN/A
2:50 PM54 °FPartly sunny.5 mph77%30.18 "Hg5 mi
1:50 PM52 °FPartly sunny.7 mph82%30.21 "Hg5 mi
12:50 PM50 °FPartly sunny.6 mph88%30.21 "Hg4 mi
11:50 AM48 °FOvercast.6 mph94%30.21 "Hg4 mi
10:50 AM48 °FPartly sunny.5 mph87%30.21 "Hg3 mi
9:50 AM45 °FFog.5 mph100%30.18 "Hg3 mi
8:50 AM45 °FFog.2 mph93%30.18 "Hg3 mi
7:50 AM41 °FFog.No wind100%30.15 "Hg2 mi
6:50 AM41 °FFog.No wind100%30.15 "Hg2 mi
5:50 AM37 °FPassing clouds.2 mph100%30.12 "Hg2 mi
Weather by CustomWeather, © 2016

See weather overviewHow to use our weather pages